User: anonymous   Login
Location: Unspecified
(0.0000°N, 0.0000°E)
Time: 20:17:32
(UTC+00:00)
Language:

TBA - TO BE ASSIGNED - Orbit

View from above orbital plane
View from above orbital plane
View from above satellite
View from above satellite

Ground track
Ground track

The orbit is defined by the following mean orbital elements,

1 68780U          26145.58335647 +.00000000 +00000-0 -22714-1 0 00009
2 68780  97.2852 182.4624 0001861  89.4303 102.8188 15.63554680    05
Epoch (UTC): 25 May 2026 14:00:01
Eccentricity: 0.0001861
inclination: 97.2852°
perigee height: 376 km
apogee height: 379 km
right ascension of ascending node: 182.4624°
argument of perigee: 89.4303°
revolutions per day: 15.63554680
mean anomaly at epoch: 102.8188°

The dashed part of the orbit path shows where the satellite is in the earth's shadow,  

DLR